datetime,"maximum soil temperature, 4 in depth"
2016-12-28,31.98
2016-12-29,31.88
2016-12-30,31.7
2016-12-31,31.91
2017-01-01,31.88
2017-01-02,31.72
2017-01-03,31.75
2017-01-04,31.88
2017-01-05,31.93
2017-01-06,31.87
2017-01-07,31.74
2017-01-08,32.02
2017-01-09,31.97
2017-01-10,32.02
2017-01-11,32.07
2017-01-12,32.14
2017-01-13,32.25
2017-01-14,32.31
2017-01-15,32.25
2017-01-16,32.16
2017-01-17,32.04
2017-01-18,32.02
2017-01-19,32.13
2017-01-20,32.14
2017-01-21,32.18
2017-01-22,32.2
2017-01-23,32.25
2017-01-24,32.27
2017-01-25,32.31
2017-01-26,32.42
2017-01-27,32.42
2017-01-28,32.47
2017-01-29,32.48
2017-01-30,32.58
2017-01-31,32.57
2017-02-01,32.53
2017-02-02,32.63
2017-02-03,38.91
2017-02-04,38.31
2017-02-05,38.35
2017-02-06,37.74
2017-02-07,40.39
2017-02-08,42.4
2017-02-09,42.69
2017-02-10,41.84
2017-02-11,39.66
2017-02-12,38.82
2017-02-13,40.15
2017-02-14,39.41
2017-02-15,39.85
2017-02-16,41.41
2017-02-17,40.3
2017-02-18,40.88
2017-02-19,40.83
2017-02-20,40.93
2017-02-21,41.08
2017-02-22,39.37
2017-02-23,37.3
2017-02-24,36.72
2017-02-25,37.86
2017-02-26,37.0
2017-02-27,35.24
2017-02-28,37.49
2017-03-01,38.11
2017-03-02,39.31
2017-03-03,39.16
2017-03-04,40.35
2017-03-05,39.47
2017-03-06,36.93
2017-03-07,37.85
2017-03-08,41.41
2017-03-09,43.94
2017-03-10,47.41
2017-03-11,45.75
2017-03-12,47.84
2017-03-13,48.48
2017-03-14,49.41
2017-03-15,48.74
2017-03-16,50.17
2017-03-17,49.3
2017-03-18,48.57
2017-03-19,48.74
2017-03-20,48.15
2017-03-21,47.59
2017-03-22,46.73
2017-03-23,47.37
2017-03-24,46.55
2017-03-25,47.59
2017-03-26,46.73
2017-03-27,46.24
2017-03-28,48.36
2017-03-29,47.42
2017-03-30,47.11
2017-03-31,48.57
2017-04-01,51.39
2017-04-02,52.36
2017-04-03,52.25
2017-04-04,51.28
2017-04-05,50.62
2017-04-06,50.09
2017-04-07,48.88
2017-04-08,47.55
2017-04-09,47.68
2017-04-10,50.5
2017-04-11,48.84
2017-04-12,48.45
2017-04-13,48.2
2017-04-14,46.9
2017-04-15,50.21
2017-04-16,49.14
2017-04-17,48.74
2017-04-18,50.33
2017-04-19,49.38
2017-04-20,50.94
2017-04-21,54.18
2017-04-22,53.04
2017-04-23,53.56
2017-04-24,52.13
2017-04-25,50.43
2017-04-26,50.71
2017-04-27,50.54
2017-04-28,54.06
2017-04-29,56.06
2017-04-30,56.86
2017-05-01,57.9
2017-05-02,60.27
2017-05-03,63.09
2017-05-04,63.43
2017-05-05,62.11
2017-05-06,59.17
2017-05-07,58.78
2017-05-08,60.88
2017-05-09,62.98
2017-05-10,63.53
2017-05-11,60.88
2017-05-12,57.81
2017-05-13,54.5
2017-05-14,57.5
2017-05-15,60.09
2017-05-16,57.14
2017-05-17,56.37
2017-05-18,60.05
2017-05-19,62.67
2017-05-20,63.71
2017-05-21,65.2
2017-05-22,66.24
2017-05-23,67.43
2017-05-24,66.51
2017-05-25,65.34
2017-05-26,66.37
2017-05-27,66.94
2017-05-28,67.79
2017-05-29,66.97
2017-05-30,64.66
2017-05-31,61.8
2017-06-01,65.1
2017-06-02,67.07
2017-06-03,68.02
2017-06-04,67.1
2017-06-05,66.24
2017-06-06,68.7
2017-06-07,64.8
2017-06-08,65.4
2017-06-09,61.16
2017-06-10,58.72
2017-06-11,55.6
2017-06-12,52.85
2017-06-13,58.93
2017-06-14,60.23
2017-06-15,59.18
2017-06-16,62.74
2017-06-17,66.11
2017-06-18,67.89
2017-06-19,69.32
2017-06-20,70.24
2017-06-21,69.96
2017-06-22,69.64
2017-06-23,69.61
2017-06-24,70.18
2017-06-25,69.41
2017-06-26,69.8
2017-06-27,69.67
2017-06-28,69.54
2017-06-29,68.9
2017-06-30,69.28
2017-07-01,70.4
2017-07-02,70.85
2017-07-03,71.6
2017-07-04,71.7
2017-07-05,70.56
2017-07-06,71.01
2017-07-07,71.26
2017-07-08,71.7
2017-07-09,73.04
2017-07-10,71.92
2017-07-11,79.2
2017-07-12,85.3
2017-07-13,79.32
2017-07-14,80.4
2017-07-15,74.52
2017-07-16,71.95
2017-07-17,71.89
2017-07-18,71.42
2017-07-19,71.42
2017-07-20,71.76
2017-07-21,71.86
2017-07-22,72.05
2017-07-23,72.14
2017-07-24,72.64
2017-07-25,71.96
2017-07-26,71.14
2017-07-27,71.04
2017-07-28,71.45
2017-07-29,71.83
2017-07-30,71.73
2017-07-31,72.05
2017-08-01,72.11
2017-08-02,72.42
2017-08-03,72.49
2017-08-04,72.05
2017-08-05,71.01
2017-08-06,69.27
2017-08-07,68.64
2017-08-08,69.06
2017-08-09,68.97
2017-08-10,68.42
2017-08-11,68.03
2017-08-12,68.15
2017-08-13,67.64
2017-08-14,67.83
2017-08-15,67.28
2017-08-16,66.94
2017-08-17,67.6
2017-08-18,67.21
2017-08-19,66.62
2017-08-20,66.58
2017-08-21,66.55
2017-08-22,66.28
2017-08-23,67.73
2017-08-24,67.11
2017-08-25,67.07
2017-08-26,66.84
2017-08-27,66.34
2017-08-28,66.78
2017-08-29,66.51
2017-08-30,65.98
2017-08-31,65.12
2017-09-01,65.04
2017-09-02,65.65
2017-09-03,66.18
2017-09-04,66.91
2017-09-05,67.34
2017-09-06,67.3
2017-09-07,66.78
2017-09-08,65.92
2017-09-09,65.81
2017-09-10,65.51
2017-09-11,65.34
2017-09-12,64.78
2017-09-13,63.98
2017-09-14,63.61
2017-09-15,62.2
2017-09-16,60.87
2017-09-17,59.72
2017-09-18,59.63
2017-09-19,58.89
2017-09-20,58.43
2017-09-21,57.89
2017-09-22,57.07
2017-09-23,55.97
2017-09-24,55.65
2017-09-25,55.7
2017-09-26,56.48
2017-09-27,56.64
2017-09-28,56.22
2017-09-29,56.27
2017-09-30,57.02
2017-10-01,56.54
2017-10-02,55.1
2017-10-03,53.92
2017-10-04,53.29
2017-10-05,52.45
2017-10-06,52.45
2017-10-07,52.57
2017-10-08,52.43
2017-10-09,51.38
2017-10-10,50.56
2017-10-11,50.39
2017-10-12,49.4
2017-10-13,49.39
2017-10-14,49.08
2017-10-15,48.13
2017-10-16,47.98
2017-10-17,48.79
2017-10-18,48.79
2017-10-19,49.67
2017-10-20,48.8
2017-10-21,46.82
2017-10-22,48.62
2017-10-23,49.3
2017-10-24,49.13
2017-10-25,48.83
2017-10-26,49.09
2017-10-27,48.8
2017-10-28,48.63
2017-10-29,48.4
2017-10-30,48.46
2017-10-31,48.33
2017-11-01,46.56
2017-11-02,46.59
2017-11-03,46.82
2017-11-04,44.87
2017-11-05,43.96
2017-11-06,44.18
2017-11-07,42.16
2017-11-08,43.58
2017-11-09,44.68
2017-11-10,44.77
2017-11-11,44.28
2017-11-12,43.77
2017-11-13,44.64
2017-11-14,44.5
2017-11-15,43.12
2017-11-16,43.49
2017-11-17,43.31
2017-11-18,41.0
2017-11-19,38.94
2017-11-20,41.31
2017-11-21,42.97
2017-11-22,44.94
2017-11-23,46.59
2017-11-24,46.55
2017-11-25,45.59
2017-11-26,45.67
2017-11-27,45.54
2017-11-28,43.83
2017-11-29,41.9
2017-11-30,40.62
2017-12-01,39.09
2017-12-02,38.77
2017-12-03,39.07
2017-12-04,38.84
2017-12-05,37.27
2017-12-06,36.53
2017-12-07,35.85
2017-12-08,35.21
2017-12-09,34.78
2017-12-10,34.35
2017-12-11,33.74
2017-12-12,33.24
2017-12-13,33.07
2017-12-14,32.66
2017-12-15,32.55
2017-12-16,32.65
2017-12-17,32.68
2017-12-18,32.55
2017-12-19,32.59
2017-12-20,32.65
2017-12-21,32.79
2017-12-22,32.14
2017-12-23,32.25
2017-12-24,32.37
2017-12-25,32.54
2017-12-26,32.43
2017-12-27,32.82
2017-12-28,32.94
2017-12-29,32.54
2017-12-30,32.82
2017-12-31,32.89
2018-01-01,32.89
2018-01-02,32.89
2018-01-03,32.82
2018-01-04,32.86
2018-01-05,32.92
2018-01-06,33.27
2018-01-07,33.44
2018-01-08,33.65
2018-01-09,34.43
2018-01-10,35.03
2018-01-11,35.61
2018-01-12,35.62
2018-01-13,35.19
2018-01-14,35.24
2018-01-15,36.29
2018-01-16,37.09
2018-01-17,38.01
2018-01-18,38.57
2018-01-19,38.27
2018-01-20,36.99
2018-01-21,36.0
2018-01-22,36.09
2018-01-23,36.25
2018-01-24,36.57
2018-01-25,36.46
2018-01-26,35.72
2018-01-27,36.88
2018-01-28,37.24
2018-01-29,37.29
2018-01-30,38.16
2018-01-31,38.01
2018-02-01,38.97
2018-02-02,39.27
2018-02-03,39.81
2018-02-04,39.96
2018-02-05,40.45
2018-02-06,40.26
2018-02-07,38.98
2018-02-08,39.07
2018-02-09,39.27
2018-02-10,39.17
2018-02-11,38.38
2018-02-12,37.04
2018-02-13,36.63
2018-02-14,35.2
2018-02-15,34.98
2018-02-16,34.88
2018-02-17,35.65
2018-02-18,35.78
2018-02-19,35.52
2018-02-20,34.83
2018-02-21,34.28
2018-02-22,34.15
2018-02-23,34.06
2018-02-24,34.05
2018-02-25,34.1
2018-02-26,34.17
2018-02-27,34.12
2018-02-28,33.95
2018-03-01,33.94
2018-03-02,33.96
2018-03-03,33.95
2018-03-04,33.85
2018-03-05,33.69
2018-03-06,33.59
2018-03-07,33.59
2018-03-08,35.13
2018-03-09,36.62
2018-03-10,37.24
2018-03-11,38.21
2018-03-12,39.11
2018-03-13,40.11
2018-03-14,39.96
2018-03-15,38.92
2018-03-16,37.76
2018-03-17,37.96
2018-03-18,38.36
2018-03-19,39.47
2018-03-20,39.22
2018-03-21,41.36
2018-03-22,41.89
2018-03-23,40.75
2018-03-24,39.57
2018-03-25,37.86
2018-03-26,38.92
2018-03-27,41.12
2018-03-28,43.34
2018-03-29,44.08
2018-03-30,44.08
2018-03-31,45.97
2018-04-01,45.79
2018-04-02,45.97
2018-04-03,44.96
2018-04-04,45.93
2018-04-05,45.88
2018-04-06,44.85
2018-04-07,46.1
2018-04-08,46.81
2018-04-09,47.15
2018-04-10,47.33
2018-04-11,47.08
2018-04-12,45.32
2018-04-13,45.71
2018-04-14,47.15
2018-04-15,46.98
2018-04-16,44.28
2018-04-17,43.95
2018-04-18,43.68
2018-04-19,44.76
2018-04-20,47.15
2018-04-21,49.38
2018-04-22,49.91
2018-04-23,49.55
2018-04-24,49.41
2018-04-25,51.56
2018-04-26,51.88
2018-04-27,51.69
2018-04-28,50.19
2018-04-29,48.42
2018-04-30,48.7
2018-05-01,49.71
2018-05-02,51.15
2018-05-03,52.96
2018-05-04,53.43
2018-05-05,53.04
2018-05-06,54.72
2018-05-07,55.53
2018-05-08,55.65
2018-05-09,55.31
2018-05-10,54.54
2018-05-11,51.85
2018-05-12,52.17
2018-05-13,55.38
2018-05-14,56.59
2018-05-15,54.49
2018-05-16,53.13
2018-05-17,55.8
2018-05-18,56.37
2018-05-19,55.34
2018-05-20,53.95
2018-05-21,56.74
2018-05-22,58.31
2018-05-23,57.13
2018-05-24,57.79
2018-05-25,54.19
2018-05-26,54.72
2018-05-27,56.83
2018-05-28,58.23
2018-05-29,58.56
2018-05-30,55.7
2018-05-31,34.4
2018-06-01,54.18
2018-06-02,56.37
2018-06-03,57.57
2018-06-04,57.76
2018-06-05,55.57
2018-06-06,54.87
2018-06-07,58.31
2018-06-08,55.39
2018-06-09,52.98
2018-06-10,54.88
2018-06-11,55.61
2018-06-12,54.22
2018-06-13,59.26
2018-06-14,59.19
2018-06-15,58.31
2018-06-16,57.64
2018-06-17,56.12
2018-06-18,56.34
2018-06-19,57.16
2018-06-20,58.97
2018-06-21,59.69
2018-06-22,59.62
2018-06-23,59.69
2018-06-24,60.41
2018-06-25,60.55
2018-06-26,60.2
2018-06-27,61.41
2018-06-28,61.05
2018-06-29,60.66
2018-06-30,61.62
2018-07-01,62.36
2018-07-02,62.36
2018-07-03,61.27
2018-07-04,60.49
2018-07-05,60.3
2018-07-06,59.53
2018-07-07,60.49
2018-07-08,61.62
2018-07-09,62.39
2018-07-10,62.57
2018-07-11,63.71
2018-07-12,64.87
2018-07-13,65.18
2018-07-14,66.18
2018-07-15,65.41
2018-07-16,65.14
2018-07-17,66.28
2018-07-18,66.35
2018-07-19,66.18
2018-07-20,66.32
2018-07-21,66.08
2018-07-22,65.24
2018-07-23,66.18
2018-07-24,66.48
2018-07-25,67.05
2018-07-26,67.31
2018-07-27,66.58
2018-07-28,65.98
2018-07-29,65.95
2018-07-30,65.71
2018-07-31,65.48
2018-08-01,65.68
2018-08-02,65.28
2018-08-03,64.43
2018-08-04,63.54
2018-08-05,63.75
2018-08-06,63.99
2018-08-07,65.24
2018-08-08,66.02
2018-08-09,66.35
2018-08-10,66.15
2018-08-11,65.61
2018-08-12,65.18
2018-08-13,65.31
2018-08-14,65.35
2018-08-15,65.07
2018-08-16,65.31
2018-08-17,65.01
2018-08-18,64.97
2018-08-19,64.84
2018-08-20,64.53
2018-08-21,63.62
2018-08-22,63.23
2018-08-23,63.3
2018-08-24,62.92
2018-08-25,62.71
2018-08-26,62.26
2018-08-27,62.5
2018-08-28,62.15
2018-08-29,62.19
2018-08-30,62.26
2018-08-31,62.26
2018-09-01,62.05
2018-09-02,62.22
2018-09-03,62.43
2018-09-04,62.75
2018-09-05,62.4
2018-09-06,62.36
2018-09-07,61.66
2018-09-08,61.1
2018-09-09,60.63
2018-09-10,60.6
2018-09-11,59.96
2018-09-12,58.85
2018-09-13,58.72
2018-09-14,57.94
2018-09-15,57.0
2018-09-16,56.98
2018-09-17,56.6
2018-09-18,56.71
2018-09-19,57.35
2018-09-20,56.45
2018-09-21,56.34
2018-09-22,56.79
2018-09-23,57.35
2018-09-24,56.06
2018-09-25,55.57
2018-09-26,55.38
2018-09-27,55.88
2018-09-28,56.11
2018-09-29,55.66
2018-09-30,55.77
2018-10-01,54.79
2018-10-02,55.31
2018-10-03,55.81
2018-10-04,55.62
2018-10-05,54.41
2018-10-06,53.21
2018-10-07,52.89
2018-10-08,54.54
2018-10-09,54.28
2018-10-10,53.22
2018-10-11,51.62
2018-10-12,50.18
2018-10-13,50.13
2018-10-14,49.65
2018-10-15,47.52
2018-10-16,47.69
2018-10-17,48.24
2018-10-18,48.19
2018-10-19,48.28
2018-10-20,48.28
2018-10-21,47.76
2018-10-22,47.47
2018-10-23,47.17
2018-10-24,47.24
2018-10-25,47.24
2018-10-26,48.24
2018-10-27,48.7
2018-10-28,49.34
2018-10-29,48.76
2018-10-30,47.44
2018-10-31,46.82
2018-11-01,48.28
2018-11-02,47.78
2018-11-03,47.17
2018-11-04,46.38
2018-11-05,45.59
2018-11-06,44.83
2018-11-07,42.67
2018-11-08,41.39
2018-11-09,40.03
2018-11-10,39.57
2018-11-11,38.74
2018-11-12,37.86
2018-11-13,38.32
2018-11-14,38.37
2018-11-15,39.07
2018-11-16,38.82
2018-11-17,39.12
2018-11-18,38.57
2018-11-19,37.72
2018-11-20,36.64
2018-11-21,38.97
2018-11-22,39.22
2018-11-23,40.4
2018-11-24,40.84
2018-11-25,40.6
2018-11-26,40.55
2018-11-27,41.75
2018-11-28,41.47
2018-11-29,41.32
2018-11-30,41.28
2018-12-01,40.46
2018-12-02,39.77
2018-12-03,38.5
2018-12-04,36.65
2018-12-05,36.41
2018-12-06,36.16
2018-12-07,35.59
2018-12-08,34.99
2018-12-09,34.99
2018-12-10,35.19
2018-12-11,35.3
2018-12-12,35.99
2018-12-13,35.89
2018-12-14,36.1
2018-12-15,36.61
2018-12-16,38.97
2018-12-17,39.02
2018-12-18,39.67
2018-12-19,39.62
2018-12-20,38.67
2018-12-21,38.57
2018-12-22,37.72
2018-12-23,36.2
2018-12-24,36.93
2018-12-25,37.55
2018-12-26,37.15
2018-12-27,35.78
2018-12-28,35.47
2018-12-29,35.04
2018-12-30,34.82
2018-12-31,34.8
2019-01-01,34.73
2019-01-02,34.28
2019-01-03,33.89
2019-01-04,33.77
2019-01-05,33.88
2019-01-06,34.05
2019-01-07,34.21
2019-01-08,35.72
2019-01-09,37.24
2019-01-10,37.19
2019-01-11,36.77
2019-01-12,36.67
2019-01-13,36.11
2019-01-14,35.09
2019-01-15,34.59
2019-01-16,35.61
2019-01-17,36.62
2019-01-18,36.46
2019-01-19,37.24
2019-01-20,38.16
2019-01-21,38.01
2019-01-22,37.2
2019-01-23,36.52
2019-01-24,36.52
2019-01-25,35.78
2019-01-26,35.67
2019-01-27,35.94
2019-01-28,35.98
2019-01-29,36.83
2019-01-30,36.62
2019-01-31,35.94
2019-02-01,36.98
2019-02-02,37.7
2019-02-03,37.7
2019-02-04,37.45
2019-02-05,36.53
2019-02-06,35.52
2019-02-07,35.16
2019-02-08,34.61
2019-02-09,34.43
2019-02-10,34.35
2019-02-11,34.18
2019-02-12,34.0
2019-02-13,33.94
2019-02-14,34.04
2019-02-15,34.54
2019-02-16,34.81
2019-02-17,34.77
2019-02-18,34.39
2019-02-19,34.11
2019-02-20,33.93
2019-02-21,33.94
2019-02-22,33.9
2019-02-23,33.66
2019-02-24,33.77
2019-02-25,34.59
2019-02-26,34.97
2019-02-27,35.51
2019-02-28,35.94
2019-03-01,36.36
2019-03-02,36.41
2019-03-03,37.09
2019-03-04,36.83
2019-03-05,36.46
2019-03-06,37.55
2019-03-07,37.55
2019-03-08,37.4
2019-03-09,36.78
2019-03-10,37.09
2019-03-11,36.99
2019-03-12,36.57
2019-03-13,37.04
2019-03-14,36.99
2019-03-15,37.14
2019-03-16,37.6
2019-03-17,38.52
2019-03-18,39.37
2019-03-19,40.44
2019-03-20,41.36
2019-03-21,41.37
2019-03-22,41.28
2019-03-23,40.35
2019-03-24,40.45
2019-03-25,40.4
2019-03-26,40.31
2019-03-27,40.26
2019-03-28,39.96
2019-03-29,39.97
2019-03-30,40.26
2019-03-31,41.13
2019-04-01,42.18
2019-04-02,43.26
2019-04-03,44.04
2019-04-04,43.86
2019-04-05,43.58
2019-04-06,43.07
2019-04-07,44.94
2019-04-08,46.24
2019-04-09,45.98
2019-04-10,43.4
2019-04-11,43.26
2019-04-12,44.09
2019-04-13,44.85
2019-04-14,44.85
2019-04-15,44.0
2019-04-16,44.77
2019-04-17,46.5
2019-04-18,48.02
2019-04-19,49.08
2019-04-20,49.04
2019-04-21,48.23
2019-04-22,49.38
2019-04-23,51.32
2019-04-24,52.41
2019-04-25,53.04
2019-04-26,52.96
2019-04-27,52.61
2019-04-28,51.9
2019-04-29,50.64
2019-04-30,50.1
2019-05-01,49.46
2019-05-02,50.21
2019-05-03,50.79
2019-05-04,52.08
2019-05-05,53.04
2019-05-06,53.63
2019-05-07,53.79
2019-05-08,54.07
2019-05-09,54.45
2019-05-10,54.18
2019-05-11,54.69
2019-05-12,55.42
2019-05-13,55.16
2019-05-14,53.96
2019-05-15,52.45
2019-05-16,51.04
2019-05-17,50.67
2019-05-18,50.43
2019-05-19,50.05
2019-05-20,49.96
2019-05-21,49.64
2019-05-22,49.38
2019-05-23,50.42
2019-05-24,51.92
2019-05-25,52.41
2019-05-26,51.7
2019-05-27,51.08
2019-05-28,53.09
2019-05-29,54.69
2019-05-30,55.2
2019-05-31,56.18
2019-06-01,57.16
2019-06-02,58.39
2019-06-03,59.19
2019-06-04,59.26
2019-06-05,59.45
2019-06-06,59.16
2019-06-07,56.44
2019-06-08,55.88
2019-06-09,57.16
2019-06-10,57.69
2019-06-11,59.34
2019-06-12,60.46
2019-06-13,61.2
2019-06-14,61.56
2019-06-15,61.45
2019-06-16,61.91
2019-06-17,62.4
2019-06-18,62.61
2019-06-19,62.05
2019-06-20,61.03
2019-06-21,59.58
2019-06-22,60.31
2019-06-23,60.6
2019-06-24,60.28
2019-06-25,59.74
2019-06-26,58.87
2019-06-27,58.46
2019-06-28,58.68
2019-06-29,59.12
2019-06-30,59.84
2019-07-01,59.88
2019-07-02,59.35
2019-07-03,64.42
2019-07-04,65.67
2019-07-05,62.78
2019-07-06,62.15
2019-07-07,62.22
2019-07-08,62.33
2019-07-09,62.13
2019-07-10,63.02
2019-07-11,63.99
2019-07-12,64.7
2019-07-13,65.21
2019-07-14,64.98
2019-07-15,64.57
2019-07-16,65.28
2019-07-17,65.28
2019-07-18,65.78
2019-07-19,65.88
2019-07-20,66.38
2019-07-21,66.71
2019-07-22,66.88
2019-07-23,66.42
2019-07-24,66.45
2019-07-25,66.22
2019-07-26,67.54
2019-07-27,67.64
2019-07-28,67.74
2019-07-29,67.87
2019-07-30,67.83
2019-07-31,68.16
2019-08-01,67.87
2019-08-02,68.16
2019-08-03,68.13
2019-08-04,68.94
2019-08-05,68.71
2019-08-06,68.0
2019-08-07,67.67
2019-08-08,67.31
2019-08-09,66.42
2019-08-10,65.32
2019-08-11,65.28
2019-08-12,66.08
2019-08-13,66.65
2019-08-14,67.51
2019-08-15,67.96
2019-08-16,67.47
2019-08-17,67.11
2019-08-18,66.71
2019-08-19,67.01
2019-08-20,66.95
2019-08-21,66.36
2019-08-22,66.61
2019-08-23,66.35
2019-08-24,67.04
2019-08-25,66.95
2019-08-26,66.78
2019-08-27,66.52
2019-08-28,66.25
2019-08-29,66.42
2019-08-30,67.08
2019-08-31,67.01
2019-09-01,66.42
2019-09-02,65.95
2019-09-03,65.82
2019-09-04,65.24
2019-09-05,65.88
2019-09-06,65.75
2019-09-07,64.88
2019-09-08,63.92
2019-09-09,63.44
2019-09-10,63.23
2019-09-11,62.78
2019-09-12,62.57
2019-09-13,63.06
2019-09-14,63.34
2019-09-15,62.82
2019-09-16,61.65
2019-09-17,60.45
2019-09-18,59.43
2019-09-19,59.89
2019-09-20,60.14
2019-09-21,60.28
2019-09-22,59.8
2019-09-23,59.46
2019-09-24,60.39
2019-09-25,60.99
2019-09-26,60.48
2019-09-27,60.14
2019-09-28,59.47
2019-09-29,56.63
2019-09-30,54.79
2019-10-01,54.44
2019-10-02,53.83
2019-10-03,54.28
2019-10-04,54.05
2019-10-05,53.42
2019-10-06,52.99
2019-10-07,53.37
2019-10-08,53.57
2019-10-09,53.3
2019-10-10,52.12
2019-10-11,50.31
2019-10-12,50.1
2019-10-13,50.84
2019-10-14,50.93
2019-10-15,50.47
2019-10-16,50.23
2019-10-17,50.56
2019-10-18,50.93
2019-10-19,50.72
2019-10-20,49.73
2019-10-21,50.72
2019-10-22,51.21
2019-10-23,51.05
2019-10-24,50.48
2019-10-25,50.42
2019-10-26,50.8
2019-10-27,50.15
2019-10-28,47.88
2019-10-29,46.86
2019-10-30,45.57
2019-10-31,44.33
2019-11-01,44.68
2019-11-02,44.91
2019-11-03,45.05
2019-11-04,45.54
2019-11-05,44.96
2019-11-06,45.67
2019-11-07,45.05
2019-11-08,44.73
2019-11-09,44.64
2019-11-10,45.75
2019-11-11,45.85
2019-11-12,45.32
2019-11-13,44.82
2019-11-14,45.0
2019-11-15,46.25
2019-11-16,45.85
2019-11-17,45.4
2019-11-18,45.32
2019-11-19,45.63
2019-11-20,45.4
2019-11-21,44.64
2019-11-22,43.05
2019-11-23,41.96
2019-11-24,41.8
2019-11-25,41.71
2019-11-26,41.09
2019-11-27,39.54
2019-11-28,39.5
2019-11-29,38.5
2019-11-30,37.79
2019-12-01,37.7
2019-12-02,40.07
2019-12-03,40.75
2019-12-04,40.51
2019-12-05,40.89
2019-12-06,41.32
2019-12-07,41.52
2019-12-08,41.86
2019-12-09,41.43
2019-12-10,40.65
2019-12-11,40.65
2019-12-12,41.9
2019-12-13,41.8
2019-12-14,41.66
2019-12-15,41.14
2019-12-16,40.76
2019-12-17,38.99
2019-12-18,37.86
2019-12-19,39.37
2019-12-20,39.96
2019-12-21,40.26
2019-12-22,40.17
2019-12-23,40.17
2019-12-24,38.95
2019-12-25,38.07
2019-12-26,38.63
2019-12-27,38.34
2019-12-28,37.16
2019-12-29,37.3
2019-12-30,38.27
2019-12-31,38.16
2020-01-01,39.47
2020-01-02,39.62
2020-01-03,39.27
2020-01-04,39.62
2020-01-05,39.57
2020-01-06,39.09
2020-01-07,38.74
2020-01-08,38.47
2020-01-09,38.52
2020-01-10,38.38
2020-01-11,38.37
2020-01-12,38.16
2020-01-13,38.12
2020-01-14,37.5
2020-01-15,37.36
2020-01-16,36.93
2020-01-17,37.04
2020-01-18,37.19
2020-01-19,37.26
2020-01-20,37.09
2020-01-21,37.19
2020-01-22,37.91
2020-01-23,38.82
2020-01-24,39.82
2020-01-25,40.31
2020-01-26,41.18
2020-01-27,41.03
2020-01-28,41.42
2020-01-29,41.19
2020-01-30,42.09
2020-01-31,41.9
2020-02-01,41.62
2020-02-02,41.08
2020-02-03,39.83
2020-02-04,38.38
2020-02-05,38.42
2020-02-06,40.16
2020-02-07,40.07
2020-02-08,39.77
2020-02-09,39.02
2020-02-10,38.74
2020-02-11,38.72
2020-02-12,39.47
2020-02-13,39.19
2020-02-14,39.42
2020-02-15,39.47
2020-02-16,40.26
2020-02-17,40.12
2020-02-18,39.24
2020-02-19,38.18
2020-02-20,38.67
2020-02-21,39.18
2020-02-22,39.62
2020-02-23,39.82
2020-02-24,39.91
2020-02-25,40.02
2020-02-26,40.31
2020-02-27,40.65
2020-02-28,40.5
2020-02-29,40.5
2020-03-01,39.52
2020-03-02,40.45
2020-03-03,41.52
2020-03-04,41.99
2020-03-05,41.9
2020-03-06,41.99
2020-03-07,41.95
2020-03-08,41.52
2020-03-09,42.05
2020-03-10,42.42
2020-03-11,43.08
2020-03-12,43.4
2020-03-13,43.31
2020-03-14,42.98
2020-03-15,41.71
2020-03-16,40.89
2020-03-17,40.84
2020-03-18,40.56
2020-03-19,40.46
2020-03-20,41.28
2020-03-21,42.56
2020-03-22,43.07
2020-03-23,43.03
2020-03-24,42.75
2020-03-25,42.19
2020-03-26,41.95
2020-03-27,41.99
2020-03-28,42.94
2020-03-29,43.21
2020-03-30,43.17
2020-03-31,44.09
2020-04-01,43.82
2020-04-02,43.4
2020-04-03,43.59
2020-04-04,43.41
2020-04-05,42.42
2020-04-06,42.89
2020-04-07,44.99
2020-04-08,46.01
2020-04-09,47.63
2020-04-10,48.96
2020-04-11,48.83
2020-04-12,48.87
2020-04-13,48.8
2020-04-14,48.62
2020-04-15,49.08
2020-04-16,48.88
2020-04-17,48.79
2020-04-18,48.54
2020-04-19,50.05
2020-04-20,49.76
2020-04-21,50.82
2020-04-22,50.51
2020-04-23,51.07
2020-04-24,51.44
2020-04-25,51.65
2020-04-26,53.0
2020-04-27,53.09
2020-04-28,54.42
2020-04-29,54.3
2020-04-30,54.18
2020-05-01,54.11
2020-05-02,53.72
2020-05-03,53.01
2020-05-04,53.09
2020-05-05,53.52
2020-05-06,54.03
2020-05-07,53.83
2020-05-08,54.92
2020-05-09,55.58
2020-05-10,55.42
2020-05-11,54.97
2020-05-12,53.03
2020-05-13,52.51
2020-05-14,51.58
2020-05-15,53.76
2020-05-16,53.38
2020-05-17,52.34
2020-05-18,52.19
2020-05-19,51.2
2020-05-20,52.29
2020-05-21,52.13
2020-05-22,52.93
2020-05-23,54.07
2020-05-24,55.5
2020-05-25,57.43
2020-05-26,58.79
2020-05-27,59.92
2020-05-28,61.38
2020-05-29,61.31
2020-05-30,60.99
2020-05-31,59.13
2020-06-01,59.42
2020-06-02,60.81
2020-06-03,61.49
2020-06-04,62.26
2020-06-05,61.81
2020-06-06,60.79
2020-06-07,58.52
2020-06-08,58.18
2020-06-09,59.56
2020-06-10,60.13
2020-06-11,60.28
2020-06-12,60.14
2020-06-13,59.57
2020-06-14,60.36
2020-06-15,61.7
2020-06-16,59.71
2020-06-17,60.18
2020-06-18,61.6
2020-06-19,62.96
2020-06-20,64.3
2020-06-21,65.11
2020-06-22,65.75
2020-06-23,97.2
2020-06-24,71.39
2020-06-25,74.4
2020-06-26,75.13
2020-06-27,72.64
2020-06-28,68.13
2020-06-29,68.91
2020-06-30,69.52
2020-07-01,69.13
2020-07-02,69.65
2020-07-03,70.09
2020-07-04,70.19
2020-07-05,70.63
2020-07-06,70.54
2020-07-07,69.49
2020-07-08,70.09
2020-07-09,70.79
2020-07-10,71.52
2020-07-11,72.46
2020-07-12,72.05
2020-07-13,72.3
2020-07-14,72.33
2020-07-15,72.61
2020-07-16,73.36
2020-07-17,73.7
2020-07-18,73.76
2020-07-19,74.03
2020-07-20,74.25
2020-07-21,74.49
2020-07-22,72.52
2020-07-23,73.26
2020-07-24,73.02
2020-07-25,71.52
2020-07-26,71.61
2020-07-27,69.87
2020-07-28,72.11
2020-07-29,72.99
2020-07-30,71.71
2020-07-31,72.95
2020-08-01,73.08
2020-08-02,73.39
2020-08-03,73.29
2020-08-04,73.91
2020-08-05,72.89
2020-08-06,72.3
2020-08-07,71.71
2020-08-08,72.08
2020-08-09,72.92
2020-08-10,72.89
2020-08-11,73.08
2020-08-12,72.21
2020-08-13,72.08
2020-08-14,72.36
2020-08-15,72.49
2020-08-16,69.93
2020-08-17,68.59
2020-08-18,72.68
2020-08-19,71.01
2020-08-20,70.95
2020-08-21,71.24
2020-08-22,71.01
2020-08-23,70.76
2020-08-24,69.26
2020-08-25,69.39
2020-08-26,69.36
2020-08-27,70.0
2020-08-28,70.19
2020-08-29,69.36
2020-08-30,69.04
2020-08-31,68.97
2020-09-01,69.23
2020-09-02,70.22
2020-09-03,70.32
2020-09-04,70.23
2020-09-05,69.36
2020-09-06,68.22
2020-09-07,69.84
2020-09-08,67.9
2020-09-09,67.47
2020-09-10,67.41
2020-09-11,66.15
2020-09-12,65.98
2020-09-13,65.08
2020-09-14,65.11
2020-09-15,64.81
2020-09-16,64.6
2020-09-17,63.75
2020-09-18,63.82
2020-09-19,64.23
2020-09-20,63.68
2020-09-21,62.61
2020-09-22,63.09
2020-09-23,62.12
2020-09-24,62.78
2020-09-25,61.84
2020-09-26,61.77
2020-09-27,61.98
2020-09-28,61.84
2020-09-29,62.29
2020-09-30,61.2
2020-10-01,61.77
2020-10-02,61.91
2020-10-03,61.84
2020-10-04,60.28
2020-10-05,59.88
2020-10-06,59.56
2020-10-07,58.9
2020-10-08,57.8
2020-10-09,57.35
2020-10-10,56.61
2020-10-11,57.13
2020-10-12,57.54
2020-10-13,57.61
2020-10-14,58.06
2020-10-15,56.6
2020-10-16,56.45
2020-10-17,57.5
2020-10-18,57.5
2020-10-19,57.13
2020-10-20,56.83
2020-10-21,56.03
2020-10-22,54.09
2020-10-23,52.77
2020-10-24,54.26
2020-10-25,52.47
2020-10-26,49.58
2020-10-27,50.54
2020-10-28,50.33
2020-10-29,49.91
2020-10-30,50.0
2020-10-31,50.41
2020-11-01,50.08
2020-11-02,49.96
2020-11-03,49.83
2020-11-04,50.16
2020-11-05,50.46
2020-11-06,50.1
2020-11-07,47.53
2020-11-08,45.77
2020-11-09,44.91
2020-11-10,45.63
2020-11-11,46.01
2020-11-12,43.22